DELTA 1 DEB, 3811

Orbit data source: Space-Track

DELTA 1 DEB, 3811 is space debris in SSO originally from a launch on Sun, 15 Dec 1968 UTC launched from the Air Force Western Test Range (AFWTR). Debris objects in space refer to the collection of defunct objects orbiting the Earth. Examples of debris include non-operational satellites, rocket bodies, and fragments generated from explosions, collisions, or faulty payload assembly.

Loading next visibility...
DELTA 1 DEB details
Identifier
3811, 1968-114C
Orbit
SSO
Last TLE update10 hours ago
Origin
Flag of USGSFC (US)
ManufacturerUnknown
MissionSpacecraft
Bus & MotorUnknown
MassUnknown
Launch date (UTC)
1968-12-15 (56 years ago)
Launch vehicleUnknown
Launch site
Air Force Western Test Range (AFWTR)
Object type
Payload
Rocket body
Debris
Shape & HBRUnknown
Radar Cross SectionSmall (<0.1 m²)

Expand to show TLE details & history

TLE from 10 hours ago
0 DELTA 1 DEB
1 03811U 68114C   24361.40009535 -.00000038  00000-0  46700-4 0  9998
2 03811 101.8861 266.7467 0137825 158.8215 270.6480 12.76356367609619
Epoch: 2024-12-26T09:36Z
Definitive object data (Epoch: 2024-12-26T09:36:08.238Z)
Latitude65.12538°
Longitude0.47877°
Altitude1,367.485 km
Speed7.181 km/s
True Right ascension15h 59m 34s
True Declination65° 00' 15"
Sunlit
Object was in daylight at TLE epoch
Visualization TLE readout
Latitude-10.04173°
Longitude-154.35639°
Altitude1,269.902 km
Speed7.262 km/s
Apparent Right ascension06h 11m 52s
Apparent Declination-23° 46' 53"
Sunlit
Object is in full shadow
Visualization observer readout
Local Sidereal Time19:00:44
Azimuth36.198° NE
Elevation-70.859°
Doppler factor1
Orbital elements
Apogee altitude1,460.238 km
Perigee altitude1,247.111 km
Semi-major axis7,731.811 km
Eccentricity0.0137825
Inclination101.8861°
RAAN266.7467°
Arg. of periapsis158.8215°
True anomaly269.06864°
Mean anomaly270.648°
Eccentric anomaly269.85832°
Mean motion3.19243 °/min
BSTAR0.0000467
Orbital period112.77 mins
Loading maneuver chart data...
Loading historical data...
Loading historical data...
Loading historical data...
Loading historical data...
Loading historical data...
Loading historical data...
Loading historical data...

DELTA 1 DEB Visibility forecast

Observer location: undefined°, undefined

Span
Click to sort rows by Start time (UTC) header in descending order
Start Az.
Max El. time (UTC)
Max El. Az.
Max El.
End time (UTC)
End Az.
14 mins2024-12-27 06:33:02.912Z24.633° NE2024-12-27 06:40:02.912Z101.93° ESE41.371°2024-12-27 06:47:02.912Z184.063° SSW
10 mins2024-12-27 08:26:02.912Z347.69° N2024-12-27 08:30:02.912Z307.506° NW24.531°2024-12-27 08:36:02.912Z250.306° W
6 mins2024-12-27 15:35:02.912Z68.725° E2024-12-27 15:37:02.912Z52.239° ENE15.254°2024-12-27 15:41:02.912Z19.956° NNE
14 mins2024-12-27 17:20:02.912Z148.545° SSE2024-12-27 17:27:02.912Z57.606° ENE43.376°2024-12-27 17:34:02.912Z347.496° N
11 mins2024-12-27 19:13:02.912Z220.784° SW2024-12-27 19:18:02.912Z264.191° W22.176°2024-12-27 19:24:02.912Z314.657° NW
|